Location: Caltech
(34.1382°N, 118.1253°W)
Time: 15:35:23
(UTC-07:00)

ARGOS - Visible Passes

Search period start: 30 July 2016 00:00
Search period end: 09 August 2016 00:00
Orbit: 820 x 836 km, 98.7° (Epoch: 30 July)

Date Brightness Start Highest point End Pass type
(mag) Time Alt. Az. Time Alt. Az. Time Alt. Az.
30 Jul 5.1 20:50:56 10° E 20:52:59 12° ENE 20:55:02 10° NE visible
30 Jul 3.1 22:32:08 70° SW 22:32:31 74° WSW 22:37:53 10° NNW visible
31 Jul 3.0 22:13:25 67° ESE 22:14:00 74° ENE 22:19:21 10° N visible
31 Jul 5.7 23:54:57 11° W 23:54:57 11° W 23:55:51 10° WNW visible
01 Aug 3.4 21:54:44 45° E 21:55:32 48° ENE 22:00:40 10° N visible
01 Aug 5.3 23:36:15 17° W 23:36:15 17° W 23:39:25 10° NW visible
02 Aug 4.0 21:36:01 30° E 21:37:07 32° ENE 21:41:48 10° N visible
02 Aug 4.7 23:17:33 26° W 23:17:33 26° W 23:21:45 10° NW visible
03 Aug 4.5 21:17:20 20° E 21:18:44 22° ENE 21:22:44 10° NNE visible
03 Aug 4.1 22:58:51 40° W 22:58:51 40° W 23:03:41 10° NNW visible
04 Aug 4.9 20:58:37 13° E 21:00:25 15° ENE 21:03:15 10° NNE visible
04 Aug 3.4 22:40:09 62° W 22:40:09 62° W 22:45:23 10° NNW visible
05 Aug 3.0 22:21:27 86° ESE 22:21:32 87° ENE 22:26:55 10° NNW visible
06 Aug 3.2 22:02:45 57° E 22:03:03 58° ENE 22:08:18 10° N visible
06 Aug 5.5 23:44:16 14° W 23:44:16 14° W 23:46:23 10° WNW visible
07 Aug 3.7 21:44:03 37° E 21:44:36 38° ENE 21:49:31 10° N visible
07 Aug 5.1 23:25:35 22° W 23:25:35 22° W 23:29:00 10° NW visible
08 Aug 4.3 21:25:22 25° E 21:26:13 26° ENE 21:30:33 10° NNE visible
08 Aug 4.5 23:06:54 32° W 23:06:54 32° W 23:11:04 10° NNW visible
